Flag for Canada Weather past 2 weeks in Cambridge, Ontario, Canada

23 °F

Ice fog.

Feels Like: 23 °F
Forecast: 19 / 44 °F
Wind: 2 mph from North

Location: Waterloo Well

Current Time: Nov 25, 2015 at 5:37:34 AM

Latest Report: Nov 25, 2015 at 5:00 AM

Visibility: 0 mi

Pressure: 30.54 "Hg

Humidity: 100%

Dew point: 23 °F

Location of CambridgeLocation

Historic Weather in Cambridge — Graph


Cambridge temperature yesterday

Maximum temperature yesterday: 39 °F (at 1:00 PM)
Minimum temperature yesterday: 25 °F (at 11:00 PM)
Average temperature yesterday: 32 °F

Past Weeks' High & Low Weather Summary

High59 °F (Nov 16, 2:00 PM)100% (Nov 10, 4:00 AM)30.52 "Hg (Nov 10, 4:00 AM)
Low7 °F (Nov 23, 5:00 AM)45% (Nov 20, 12:00 PM)29.31 "Hg (Nov 12, 12:00 PM)
Average40 °F83%30.02 "Hg
* Reported Nov 10 4:00 AM — Nov 25 4:00 AM, Cambridge, Weather by CustomWeather, © 2015

Note: Actual official high and low records may vary slightly from our data, if they occured in-between our weather recording intervals... More about our weather records


Cambridge weather history for previous 24 hours

Time TempWeatherWind HumidityBarometerVisibility
4:00 AM
Wed, Nov 25
23 °FIce fog.No wind100%30.52 "Hg0 mi
3:00 AM23 °FIce fog.No wind100%30.52 "Hg0 mi
2:00 AM25 °FIce fog.No wind93%30.50 "Hg0 mi
1:00 AM23 °FIce fog.No wind100%30.48 "Hg0 mi
12:00 AM25 °FIce fog.No wind100%30.47 "Hg0 mi
11:00 PM
Tue, Nov 24
25 °FHeavy snow. Passing clouds.2 mph93%30.47 "Hg0 mi
10:02 PM28 °FSnow. Clear.No wind100%30.47 "Hg1 mi
9:02 PM28 °FIce fog.No wind100%30.45 "Hg2 mi
8:00 PM32 °FIce fog.3 mph93%30.44 "Hg4 mi
7:00 PM34 °FPassing clouds.6 mph93%30.42 "Hg7 mi
6:00 PM36 °FOvercast.7 mph87%30.41 "Hg8 mi
5:00 PM36 °FOvercast.7 mph87%30.39 "Hg9 mi
4:00 PM37 °FOvercast.8 mph81%30.37 "Hg9 mi
3:00 PM37 °FBroken clouds.12 mph81%30.35 "Hg9 mi
2:47 PM37 °FCloudy.12 mph81%30.34 "Hg9 mi
2:00 PM37 °FPartly sunny.12 mph75%30.33 "Hg9 mi
1:00 PM39 °FPartly sunny.12 mph70%30.32 "Hg9 mi
12:00 PM37 °FPartly sunny.12 mph75%30.32 "Hg9 mi
11:00 AM36 °FOvercast.9 mph81%30.32 "Hg9 mi
10:00 AM34 °FOvercast.8 mph87%30.30 "Hg9 mi
9:00 AM32 °FOvercast.6 mph93%30.27 "Hg7 mi
8:00 AM32 °FLight snow. Mostly cloudy.6 mph87%30.25 "Hg6 mi
7:48 AM32 °FLight snow. Mostly cloudy.6 mph87%30.24 "Hg6 mi
7:00 AM30 °FIce fog.6 mph93%30.23 "Hg5 mi
6:00 AM30 °FIce fog.8 mph93%30.19 "Hg5 mi
5:00 AM30 °FIce fog.8 mph93%30.18 "Hg6 mi
Weather by CustomWeather, © 2015

See weather overviewHow to use our weather pages